| time (UTC) | temp C | wind direction | speed KPH | gust KPH | rain 1hr cm | rain 24hr cm | rain mn cm | humidity % | barometer mb |
| 20260506123055 | 6 | 360 | 3.2 | 9.7 | 0.00 | 3.48 | 1.32 | 94 | 1008.8 |
| 20260506121602 | 6 | 115 | 1.6 | 8.0 | 0.00 | 3.48 | 1.32 | 94 | 1008.6 |
| 20260506114559 | 6 | 315 | 3.2 | 8.0 | 0.00 | 3.48 | 1.32 | 94 | 1009.0 |
| 20260506113057 | 6 | 263 | 1.6 | 9.7 | 0.00 | 3.48 | 1.32 | 94 | 1008.8 |
| 20260506111559 | 6 | 248 | 1.6 | 9.7 | 0.00 | 3.48 | 1.32 | 94 | 1008.2 |
| 20260506110057 | 7 | 256 | 3.2 | 8.0 | 0.00 | 3.48 | 1.32 | 94 | 1008.2 |
| 20260506104604 | 6 | 253 | 1.6 | 6.4 | 0.00 | 3.48 | 1.32 | 94 | 1008.0 |
| 20260506103055 | 6 | 311 | 0.0 | 6.4 | 0.03 | 3.48 | 1.32 | 94 | 1007.3 |
| 20260506101557 | 6 | 268 | 0.0 | 3.2 | 0.08 | 3.48 | 1.32 | 94 | 1007.2 |
| 20260506100109 | 6 | 0 | 1.6 | 4.8 | 0.10 | 3.48 | 1.32 | 94 | 1006.9 |
| 20260506094556 | 6 | 316 | 0.0 | 4.8 | 0.13 | 3.48 | 1.32 | 94 | 1007.3 |
| 20260506093059 | 6 | 284 | 1.6 | 3.2 | 0.10 | 3.45 | 1.30 | 94 | 1008.0 |
| 20260506091558 | 6 | 10 | 0.0 | 4.8 | 0.08 | 3.40 | 1.24 | 94 | 1007.8 |
| 20260506090058 | 6 | 299 | 1.6 | 4.8 | 0.10 | 3.38 | 1.22 | 94 | 1007.8 |
| 20260506084603 | 6 | 0 | 0.0 | 3.2 | 0.15 | 3.35 | 1.19 | 94 | 1007.7 |
| 20260506083056 | 6 | 12 | 1.6 | 6.4 | 0.25 | 3.35 | 1.19 | 94 | 1007.4 |
| 20260506081558 | 6 | 288 | 1.6 | 6.4 | 0.33 | 3.33 | 1.17 | 94 | 1007.5 |
| 20260506073057 | 6 | 287 | 1.6 | 6.4 | 0.33 | 3.10 | 0.94 | 94 | 1007.4 |
| 20260506071600 | 6 | 65 | 1.6 | 9.7 | 0.30 | 2.97 | 0.84 | 93 | 1007.1 |
| 20260506061559 | 7 | 0 | 1.6 | 4.8 | 0.30 | 2.67 | 0.53 | 93 | 1007.2 |
| 20260506044605 | 8 | 0 | 1.6 | 6.4 | 0.20 | 2.31 | 0.15 | 93 | 1007.9 |
| 20260506043057 | 8 | 0 | 0.0 | 3.2 | 0.18 | 2.24 | 0.08 | 93 | 1008.0 |
| 20260506041604 | 8 | 352 | 0.0 | 4.8 | 0.15 | 2.18 | 0.03 | 93 | 1008.2 |
| 20260506040109 | 8 | 136 | 1.6 | 6.4 | 0.18 | 2.16 | 0.00 | 93 | 1008.1 |
| 20260506034554 | 8 | 0 | 1.6 | 9.7 | 0.18 | 2.11 | 2.11 | 93 | 1008.3 |
| 20260506033057 | 9 | 342 | 1.6 | 4.8 | 0.18 | 2.06 | 2.06 | 93 | 1008.4 |
| 20260506031601 | 9 | 205 | 1.6 | 6.4 | 0.30 | 2.03 | 2.03 | 93 | 1008.4 |
| 20260506030121 | 9 | 0 | 0.0 | 3.2 | 0.46 | 1.98 | 1.98 | 93 | 1008.6 |
| 20260506024559 | 9 | 0 | 0.0 | 4.8 | 0.58 | 1.93 | 1.93 | 93 | 1008.7 |
| 20260506023107 | 9 | 229 | 3.2 | 6.4 | 0.69 | 1.88 | 1.88 | 92 | 1009.2 |
| 20260506021606 | 9 | 352 | 1.6 | 4.8 | 0.66 | 1.73 | 1.73 | 92 | 1008.2 |
| 20260506020110 | 10 | 0 | 1.6 | 6.4 | 0.64 | 1.52 | 1.52 | 92 | 1008.2 |
| 20260506014613 | 10 | 297 | 3.2 | 4.8 | 0.56 | 1.32 | 1.32 | 91 | 1007.9 |
| 20260506013108 | 11 | 38 | 1.6 | 6.4 | 0.48 | 1.19 | 1.19 | 91 | 1007.8 |
| 20260506011600 | 11 | 41 | 1.6 | 4.8 | 0.38 | 1.07 | 1.07 | 90 | 1007.7 |
| 20260506010107 | 11 | 0 | 1.6 | 9.7 | 0.20 | 0.89 | 0.89 | 90 | 1007.7 |
| 20260506004554 | 12 | 311 | 1.6 | 8.0 | 0.08 | 0.76 | 0.76 | 89 | 1007.7 |
| 20260506003054 | 12 | 80 | 3.2 | 6.4 | 0.10 | 0.71 | 0.71 | 89 | 1007.6 |
| 20260506001556 | 13 | 0 | 0.0 | 0.0 | 0.18 | 0.69 | 0.69 | 90 | 1007.4 |
| 20260506000058 | 13 | 0 | 0.0 | 1.6 | 0.53 | 0.69 | 0.69 | 90 | 1007.4 |
| 20260505234557 | 13 | 0 | 0.0 | 1.6 | 0.66 | 0.69 | 0.69 | 90 | 1007.5 |
| 20260505233114 | 13 | 0 | 0.0 | 1.6 | 0.58 | 0.61 | 0.61 | 89 | 1007.7 |
| 20260505231600 | 13 | 255 | 3.2 | 12.9 | 0.46 | 0.48 | 0.48 | 89 | 1007.8 |
| 20260505230054 | 13 | 240 | 4.8 | 14.5 | 0.13 | 0.15 | 0.15 | 88 | 1007.7 |
| 20260505224559 | 14 | 262 | 1.6 | 4.8 | 0.00 | 0.03 | 0.03 | 87 | 1007.5 |
| 20260505223057 | 14 | 309 | 1.6 | 4.8 | 0.00 | 0.03 | 0.03 | 87 | 1007.3 |
| 20260505221604 | 14 | 227 | 0.0 | 3.2 | 0.00 | 0.03 | 0.03 | 87 | 1007.5 |
| 20260505220057 | 14 | 338 | 0.0 | 6.4 | 0.00 | 0.03 | 0.03 | 87 | 1007.6 |
| 20260505214605 | 14 | 295 | 1.6 | 4.8 | 0.00 | 0.03 | 0.03 | 87 | 1007.6 |
| 20260505213118 | 14 | 338 | 0.0 | 3.2 | 0.00 | 0.03 | 0.03 | 87 | 1007.5 |
| 20260505211602 | 15 | 238 | 3.2 | 8.0 | 0.03 | 0.03 | 0.03 | 86 | 1007.6 |
| 20260505210107 | 15 | 270 | 3.2 | 8.0 | 0.03 | 0.03 | 0.03 | 85 | 1007.7 |
| 20260505204559 | 15 | 255 | 1.6 | 8.0 | 0.03 | 0.03 | 0.03 | 84 | 1007.6 |
| 20260505203058 | 16 | 214 | 1.6 | 4.8 | 0.03 | 0.03 | 0.03 | 83 | 1007.6 |
| 20260505201555 | 16 | 220 | 0.0 | 1.6 | 0.00 | 0.00 | 0.00 | 79 | 1007.4 |
| 20260505200058 | 17 | 0 | 0.0 | 3.2 | 0.00 | 0.00 | 0.00 | 76 | 1007.3 |
| 20260505194603 | 18 | 0 | 1.6 | 8.0 | 0.00 | 0.00 | 0.00 | 72 | 1007.3 |
| 20260505193128 | 18 | 271 | 1.6 | 6.4 | 0.00 | 0.00 | 0.00 | 71 | 1007.4 |
| 20260505191605 | 18 | 283 | 1.6 | 9.7 | 0.00 | 0.00 | 0.00 | 72 | 1007.5 |
| 20260505190058 | 18 | 285 | 3.2 | 9.7 | 0.00 | 0.00 | 0.00 | 72 | 1007.7 |
| 20260505184603 | 17 | 256 | 3.2 | 6.4 | 0.00 | 0.00 | 0.00 | 73 | 1007.9 |
| 20260505183055 | 17 | 234 | 6.4 | 16.1 | 0.00 | 0.00 | 0.00 | 72 | 1008.2 |
| 20260505181556 | 17 | 274 | 4.8 | 17.7 | 0.00 | 0.00 | 0.00 | 71 | 1008.3 |
| 20260505180058 | 17 | 288 | 6.4 | 16.1 | 0.00 | 0.00 | 0.00 | 70 | 1007.9 |
| 20260505174556 | 18 | 235 | 6.4 | 19.3 | 0.00 | 0.00 | 0.00 | 69 | 1007.8 |
| 20260505173100 | 18 | 342 | 9.7 | 22.5 | 0.00 | 0.00 | 0.00 | 67 | 1007.8 |
| 20260505171559 | 18 | 274 | 9.7 | 17.7 | 0.00 | 0.00 | 0.00 | 65 | 1007.6 |
| 20260505170056 | 19 | 272 | 8.0 | 22.5 | 0.00 | 0.00 | 0.00 | 63 | 1007.6 |
| 20260505164557 | 19 | 284 | 3.2 | 14.5 | 0.00 | 0.00 | 0.00 | 64 | 1007.5 |
| 20260505163059 | 20 | 248 | 4.8 | 14.5 | 0.00 | 0.00 | 0.00 | 63 | 1007.5 |
| 20260505161559 | 20 | 285 | 4.8 | 17.7 | 0.00 | 0.00 | 0.00 | 62 | 1007.5 |
| 20260505153104 | 20 | 218 | 3.2 | 20.9 | 0.00 | 0.00 | 0.00 | 66 | 1007.0 |
| 20260505151558 | 20 | 8 | 6.4 | 20.9 | 0.00 | 0.00 | 0.00 | 66 | 1007.1 |
| 20260505130116 | 15 | 304 | 0.0 | 1.6 | 0.00 | 0.00 | 0.00 | 77 | 1007.0 |
| 20260505124617 | 15 | 284 | 3.2 | 9.7 | 0.00 | 0.00 | 0.00 | 76 | 1007.0 |